RYR30JT LEZL-LEPA

Flight info

Callsign RYR30JT
Flight time 1h 17m
Altitude 36000
Route BUDIT M445 LASPO M871 GODOX
Aircraft A320/M-SDE3FGHIRWY/LB1

Departure

Time 2026-05-06 06:18
Airport Seville Airport (LEZL)

Arrival

Time 2026-05-06 07:35
Airport Palma de Mallorca Airport (LEPA)
Time Latitude Longitude Altitude Speed Heading
2026-05-06 06:04 37.42153 -5.90029 90 ft 0 kts 314°
2026-05-06 06:09 37.42150 -5.90026 90 ft 2 kts 315°
2026-05-06 06:09 37.42139 -5.90013 90 ft 2 kts 314°
2026-05-06 06:09 37.42129 -5.89999 90 ft 2 kts 314°
2026-05-06 06:09 37.42118 -5.89986 90 ft 2 kts 334°
2026-05-06 06:10 37.42103 -5.89981 90 ft 2 kts 355°
2026-05-06 06:10 37.42088 -5.89982 89 ft 2 kts 19°
2026-05-06 06:10 37.42075 -5.89991 89 ft 0 kts 41°
2026-05-06 06:10 37.42071 -5.89996 89 ft 1 kts 46°
2026-05-06 06:11 37.42070 -5.89998 89 ft 0 kts 45°
2026-05-06 06:12 37.42074 -5.89991 89 ft 3 kts 52°
2026-05-06 06:12 37.42072 -5.89949 90 ft 6 kts 114°
2026-05-06 06:13 37.42027 -5.89898 90 ft 10 kts 153°
2026-05-06 06:13 37.41981 -5.89826 90 ft 11 kts 98°
2026-05-06 06:13 37.41981 -5.89721 90 ft 13 kts 90°
2026-05-06 06:13 37.41981 -5.89597 90 ft 15 kts 90°
2026-05-06 06:14 37.41981 -5.89457 90 ft 16 kts 90°
2026-05-06 06:14 37.41981 -5.89304 91 ft 18 kts 89°
2026-05-06 06:14 37.41982 -5.89137 91 ft 19 kts 90°
2026-05-06 06:14 37.41982 -5.88964 91 ft 19 kts 89°
2026-05-06 06:15 37.41983 -5.88793 91 ft 19 kts 89°
2026-05-06 06:15 37.41984 -5.88633 94 ft 17 kts 89°
2026-05-06 06:15 37.41984 -5.88471 94 ft 18 kts 90°
2026-05-06 06:15 37.41985 -5.88308 97 ft 18 kts 90°
2026-05-06 06:16 37.41985 -5.88146 100 ft 18 kts 89°
2026-05-06 06:16 37.41986 -5.87979 100 ft 19 kts 90°
2026-05-06 06:16 37.41987 -5.87807 104 ft 19 kts 89°
2026-05-06 06:16 37.41988 -5.87632 104 ft 20 kts 90°
2026-05-06 06:17 37.41958 -5.87471 107 ft 18 kts 127°
2026-05-06 06:17 37.41845 -5.87451 107 ft 18 kts 213°
2026-05-06 06:17 37.41800 -5.87594 105 ft 19 kts 269°
2026-05-06 06:17 37.41799 -5.87971 100 ft 77 kts 270°
2026-05-06 06:18 37.41795 -5.88928 91 ft 139 kts 269°
2026-05-06 06:18 37.41787 -5.90334 254 ft 174 kts 270°
2026-05-06 06:18 37.41781 -5.91842 874 ft 175 kts 271°
2026-05-06 06:18 37.42012 -5.93290 1606 ft 169 kts 304°
2026-05-06 06:19 37.42865 -5.94270 2180 ft 172 kts 329°
2026-05-06 06:19 37.43911 -5.95125 2629 ft 188 kts 327°
2026-05-06 06:19 37.45010 -5.96145 3073 ft 206 kts 324°
2026-05-06 06:19 37.46178 -5.97363 3438 ft 230 kts 321°
2026-05-06 06:20 37.47421 -5.98754 3955 ft 248 kts 319°
2026-05-06 06:20 37.48729 -6.00274 4549 ft 262 kts 318°
2026-05-06 06:20 37.50060 -6.01853 5378 ft 266 kts 317°
2026-05-06 06:20 37.51393 -6.03445 6252 ft 268 kts 316°
2026-05-06 06:21 37.52738 -6.05056 7077 ft 271 kts 316°
2026-05-06 06:21 37.54127 -6.06683 7875 ft 274 kts 321°
2026-05-06 06:21 37.55820 -6.07732 8621 ft 279 kts 347°
2026-05-06 06:21 37.57778 -6.07762 9386 ft 285 kts 11°
2026-05-06 06:22 37.59575 -6.06765 10094 ft 292 kts 36°
2026-05-06 06:22 37.60936 -6.04833 10619 ft 306 kts 61°
2026-05-06 06:22 37.61627 -6.02228 10984 ft 324 kts 76°
2026-05-06 06:22 37.62164 -5.99406 11438 ft 337 kts 76°
2026-05-06 06:23 37.62725 -5.96497 12089 ft 342 kts 75°
2026-05-06 06:23 37.63297 -5.93574 12760 ft 346 kts 75°
2026-05-06 06:23 37.63886 -5.90604 13398 ft 351 kts 75°
2026-05-06 06:23 37.64481 -5.87628 14012 ft 355 kts 75°
2026-05-06 06:24 37.65084 -5.84621 14605 ft 359 kts 75°
2026-05-06 06:24 37.65704 -5.81532 15208 ft 364 kts 75°
2026-05-06 06:24 37.66322 -5.78453 15785 ft 367 kts 75°
2026-05-06 06:24 37.66951 -5.75321 16367 ft 371 kts 75°
2026-05-06 06:25 37.67585 -5.72157 16945 ft 374 kts 75°
2026-05-06 06:25 37.68225 -5.68958 17480 ft 378 kts 75°
2026-05-06 06:25 37.69516 -5.62500 18556 ft 384 kts 75°
2026-05-06 06:26 37.70170 -5.59208 19051 ft 388 kts 75°
2026-05-06 06:26 37.70830 -5.55890 19517 ft 392 kts 75°
2026-05-06 06:26 37.71487 -5.52578 19973 ft 396 kts 75°
2026-05-06 06:26 37.72157 -5.49200 20447 ft 400 kts 75°
2026-05-06 06:27 37.72837 -5.45763 20921 ft 403 kts 75°
2026-05-06 06:27 37.73519 -5.42307 21374 ft 407 kts 75°
2026-05-06 06:27 37.74197 -5.38868 21819 ft 410 kts 75°
2026-05-06 06:27 37.74892 -5.35339 22249 ft 414 kts 75°
2026-05-06 06:28 37.75582 -5.31831 22667 ft 417 kts 76°
2026-05-06 06:28 37.76289 -5.28228 23076 ft 421 kts 76°
2026-05-06 06:28 37.76987 -5.24671 23471 ft 424 kts 76°
2026-05-06 06:28 37.77698 -5.21033 23866 ft 427 kts 76°
2026-05-06 06:29 37.78410 -5.17392 24260 ft 431 kts 76°
2026-05-06 06:29 37.79126 -5.13719 24632 ft 434 kts 76°
2026-05-06 06:29 37.79847 -5.10014 25033 ft 436 kts 76°
2026-05-06 06:29 37.80566 -5.06315 25527 ft 436 kts 76°
2026-05-06 06:30 37.81290 -5.02578 25947 ft 438 kts 76°
2026-05-06 06:30 37.82013 -4.98846 26305 ft 441 kts 76°
2026-05-06 06:30 37.82738 -4.95090 26647 ft 445 kts 76°
2026-05-06 06:30 37.83478 -4.91247 26992 ft 448 kts 76°
2026-05-06 06:31 37.84182 -4.87444 27338 ft 450 kts 78°
2026-05-06 06:31 37.84726 -4.83565 27673 ft 453 kts 82°
2026-05-06 06:31 37.85074 -4.79579 27993 ft 456 kts 86°
2026-05-06 06:31 37.85326 -4.75585 28307 ft 458 kts 86°
2026-05-06 06:32 37.85561 -4.71574 28625 ft 461 kts 86°
2026-05-06 06:32 37.85800 -4.67505 28921 ft 464 kts 86°
2026-05-06 06:32 37.86041 -4.63429 29221 ft 466 kts 86°
2026-05-06 06:32 37.86283 -4.59375 29513 ft 469 kts 86°
2026-05-06 06:33 37.86531 -4.55259 29796 ft 471 kts 86°
2026-05-06 06:33 37.86778 -4.51135 30068 ft 474 kts 86°
2026-05-06 06:33 37.87027 -4.46962 30321 ft 477 kts 86°
2026-05-06 06:33 37.87274 -4.42811 30576 ft 479 kts 86°
2026-05-06 06:34 37.87523 -4.38611 30841 ft 481 kts 86°
2026-05-06 06:34 37.87774 -4.34354 31118 ft 483 kts 87°
2026-05-06 06:34 37.88018 -4.30181 31360 ft 484 kts 87°
2026-05-06 06:34 37.88266 -4.25900 31607 ft 486 kts 87°
2026-05-06 06:35 37.88512 -4.21647 31842 ft 487 kts 87°
2026-05-06 06:35 37.88757 -4.17389 32064 ft 489 kts 87°
2026-05-06 06:35 37.89001 -4.13110 32279 ft 491 kts 87°
2026-05-06 06:35 37.89246 -4.08784 32495 ft 493 kts 87°
2026-05-06 06:36 37.89487 -4.04487 32695 ft 494 kts 87°
2026-05-06 06:36 37.89732 -4.00123 32902 ft 496 kts 87°
2026-05-06 06:36 37.89971 -3.95836 33163 ft 495 kts 87°
2026-05-06 06:36 37.90212 -3.91471 33453 ft 495 kts 87°
2026-05-06 06:37 37.90448 -3.87170 33720 ft 494 kts 87°
2026-05-06 06:37 37.90683 -3.82843 33963 ft 494 kts 87°
2026-05-06 06:37 37.90917 -3.78524 34197 ft 495 kts 87°
2026-05-06 06:37 37.91153 -3.74165 34399 ft 496 kts 87°
2026-05-06 06:38 37.91383 -3.69838 34577 ft 497 kts 87°
2026-05-06 06:38 37.91614 -3.65502 34741 ft 497 kts 87°
2026-05-06 06:38 37.91845 -3.61122 34922 ft 497 kts 87°
2026-05-06 06:38 37.92074 -3.56779 35109 ft 497 kts 87°
2026-05-06 06:39 37.92302 -3.52450 35265 ft 497 kts 87°
2026-05-06 06:39 37.92533 -3.48046 35403 ft 498 kts 87°
2026-05-06 06:39 37.92759 -3.43716 35539 ft 498 kts 87°
2026-05-06 06:39 37.92987 -3.39324 35681 ft 499 kts 87°
2026-05-06 06:40 37.93208 -3.35011 35817 ft 499 kts 87°
2026-05-06 06:40 37.93433 -3.30608 35931 ft 500 kts 88°
2026-05-06 06:40 37.93656 -3.26223 35973 ft 501 kts 88°
2026-05-06 06:41 37.94097 -3.17416 35984 ft 501 kts 88°
2026-05-06 06:41 37.94531 -3.08652 35985 ft 501 kts 88°
2026-05-06 06:42 37.94960 -2.99858 35983 ft 501 kts 88°
2026-05-06 06:42 37.95380 -2.91087 35974 ft 501 kts 88°
2026-05-06 06:43 37.95795 -2.82312 35969 ft 502 kts 88°
2026-05-06 06:43 37.96205 -2.73510 35969 ft 502 kts 88°
2026-05-06 06:44 37.96606 -2.64704 35971 ft 502 kts 88°
2026-05-06 06:44 37.97518 -2.55981 35971 ft 503 kts 75°
2026-05-06 06:45 38.00112 -2.47811 35969 ft 500 kts 58°
2026-05-06 06:45 38.04205 -2.40848 35971 ft 495 kts 43°
2026-05-06 06:46 38.08984 -2.34597 35972 ft 494 kts 42°
2026-05-06 06:46 38.13763 -2.28325 35969 ft 495 kts 43°
2026-05-06 06:47 38.18482 -2.21999 35973 ft 495 kts 44°
2026-05-06 06:47 38.23006 -2.15385 35970 ft 497 kts 49°
2026-05-06 06:48 38.27258 -2.08503 35974 ft 497 kts 49°
2026-05-06 06:48 38.31525 -2.01562 35976 ft 498 kts 49°
2026-05-06 06:49 38.35778 -1.94664 35972 ft 498 kts 49°
2026-05-06 06:49 38.40061 -1.87712 35975 ft 498 kts 49°
2026-05-06 06:50 38.44314 -1.80791 35968 ft 498 kts 49°
2026-05-06 06:50 38.48600 -1.73804 35967 ft 498 kts 49°
2026-05-06 06:51 38.52858 -1.66845 35963 ft 499 kts 49°
2026-05-06 06:51 38.57088 -1.59917 35967 ft 499 kts 49°
2026-05-06 06:52 38.61344 -1.52930 35968 ft 498 kts 49°
2026-05-06 06:52 38.65591 -1.45944 35971 ft 499 kts 49°
2026-05-06 06:53 38.69828 -1.38960 35974 ft 499 kts 49°
2026-05-06 06:53 38.74091 -1.31920 35972 ft 499 kts 50°
2026-05-06 06:54 38.78316 -1.24928 35977 ft 499 kts 50°
2026-05-06 06:54 38.82573 -1.17872 35977 ft 500 kts 50°
2026-05-06 06:55 38.86786 -1.10866 35979 ft 500 kts 50°
2026-05-06 06:55 38.91011 -1.03827 35980 ft 499 kts 50°
2026-05-06 06:56 38.95252 -0.96749 35984 ft 499 kts 50°
2026-05-06 06:56 38.99448 -0.89732 35981 ft 499 kts 50°
2026-05-06 06:57 39.03672 -0.82663 35982 ft 499 kts 49°
2026-05-06 06:57 39.08273 -0.76020 35972 ft 496 kts 41°
2026-05-06 06:58 39.13417 -0.70171 35973 ft 494 kts 35°
2026-05-06 06:58 39.18726 -0.64602 35964 ft 493 kts 35°
2026-05-06 06:59 39.23793 -0.58566 35959 ft 499 kts 47°
2026-05-06 06:59 39.27384 -0.50905 35956 ft 504 kts 67°
2026-05-06 07:00 39.29044 -0.42189 35961 ft 503 kts 85°
2026-05-06 07:00 39.29484 -0.33170 35967 ft 503 kts 89°
2026-05-06 07:01 39.29868 -0.24205 35963 ft 503 kts 88°
2026-05-06 07:01 39.30306 -0.15185 35961 ft 502 kts 88°
2026-05-06 07:01 39.30529 -0.10758 35827 ft 504 kts 88°
2026-05-06 07:02 39.30759 -0.06225 35139 ft 508 kts 88°
2026-05-06 07:02 39.30989 -0.01672 34336 ft 513 kts 88°
2026-05-06 07:02 39.31218 0.02920 33424 ft 515 kts 88°
2026-05-06 07:02 39.31444 0.07472 32577 ft 515 kts 88°
2026-05-06 07:03 39.31672 0.12089 32004 ft 509 kts 88°
2026-05-06 07:03 39.31894 0.16600 31487 ft 503 kts 88°
2026-05-06 07:03 39.32110 0.21040 30999 ft 497 kts 88°
2026-05-06 07:03 39.32324 0.25484 30497 ft 491 kts 88°
2026-05-06 07:04 39.32532 0.29836 30019 ft 485 kts 88°
2026-05-06 07:04 39.32736 0.34131 29564 ft 479 kts 88°
2026-05-06 07:04 39.32935 0.38396 29125 ft 473 kts 88°
2026-05-06 07:04 39.33132 0.42628 28668 ft 468 kts 88°
2026-05-06 07:05 39.33322 0.46773 28212 ft 462 kts 88°
2026-05-06 07:05 39.33507 0.50857 27778 ft 457 kts 88°
2026-05-06 07:05 39.33690 0.54934 27343 ft 451 kts 88°
2026-05-06 07:05 39.33870 0.58955 26925 ft 446 kts 88°
2026-05-06 07:06 39.34046 0.62924 26505 ft 441 kts 88°
2026-05-06 07:06 39.34220 0.66831 26087 ft 436 kts 89°
2026-05-06 07:06 39.34389 0.70684 25662 ft 431 kts 89°
2026-05-06 07:06 39.34555 0.74510 25258 ft 426 kts 89°
2026-05-06 07:07 39.34719 0.78291 24835 ft 422 kts 89°
2026-05-06 07:07 39.34882 0.82073 24417 ft 417 kts 89°
2026-05-06 07:07 39.35039 0.85766 24004 ft 413 kts 89°
2026-05-06 07:07 39.35195 0.89482 23589 ft 410 kts 89°
2026-05-06 07:08 39.35347 0.93108 23180 ft 406 kts 89°
2026-05-06 07:08 39.35496 0.96698 22768 ft 403 kts 89°
2026-05-06 07:08 39.35646 1.00314 22346 ft 400 kts 89°
2026-05-06 07:08 39.35793 1.03869 21922 ft 398 kts 89°
2026-05-06 07:09 39.35937 1.07411 21505 ft 395 kts 89°
2026-05-06 07:09 39.36079 1.10946 21075 ft 393 kts 89°
2026-05-06 07:09 39.36219 1.14441 20664 ft 390 kts 89°
2026-05-06 07:09 39.36357 1.17900 20239 ft 388 kts 89°
2026-05-06 07:10 39.36497 1.21399 19816 ft 386 kts 89°
2026-05-06 07:10 39.36631 1.24808 19404 ft 384 kts 89°
2026-05-06 07:10 39.36765 1.28224 18983 ft 382 kts 89°
2026-05-06 07:10 39.36897 1.31642 18559 ft 380 kts 89°
2026-05-06 07:11 39.37027 1.35072 18129 ft 378 kts 89°
2026-05-06 07:11 39.37154 1.38404 17716 ft 377 kts 88°
2026-05-06 07:11 39.37373 1.41774 17276 ft 376 kts 84°
2026-05-06 07:11 39.37763 1.45116 16851 ft 375 kts 81°
2026-05-06 07:12 39.38200 1.48426 16424 ft 374 kts 81°
2026-05-06 07:12 39.38644 1.51720 16007 ft 372 kts 81°
2026-05-06 07:12 39.39082 1.54993 15590 ft 371 kts 81°
2026-05-06 07:12 39.39518 1.58270 15173 ft 369 kts 81°
2026-05-06 07:13 39.39946 1.61516 14760 ft 367 kts 81°
2026-05-06 07:13 39.40366 1.64722 14346 ft 366 kts 81°
2026-05-06 07:13 39.40788 1.67946 13931 ft 364 kts 81°
2026-05-06 07:13 39.41206 1.71151 13517 ft 362 kts 81°
2026-05-06 07:14 39.41623 1.74361 13104 ft 359 kts 81°
2026-05-06 07:14 39.42034 1.77539 12695 ft 356 kts 81°
2026-05-06 07:14 39.42437 1.80651 12293 ft 354 kts 81°
2026-05-06 07:14 39.42841 1.83776 11886 ft 351 kts 81°
2026-05-06 07:15 39.43238 1.86857 11482 ft 348 kts 81°
2026-05-06 07:15 39.43632 1.89915 11081 ft 345 kts 81°
2026-05-06 07:15 39.44023 1.92967 10676 ft 342 kts 81°
2026-05-06 07:15 39.44410 1.95998 10269 ft 339 kts 81°
2026-05-06 07:16 39.44787 1.98947 10046 ft 329 kts 81°
2026-05-06 07:16 39.45182 2.01823 9928 ft 316 kts 78°
2026-05-06 07:16 39.45734 2.04514 9879 ft 304 kts 72°
2026-05-06 07:16 39.46403 2.07112 9905 ft 305 kts 70°
2026-05-06 07:17 39.47092 2.09697 9921 ft 305 kts 70°
2026-05-06 07:17 39.47783 2.12281 9927 ft 305 kts 71°
2026-05-06 07:17 39.48475 2.14888 9929 ft 305 kts 71°
2026-05-06 07:17 39.49163 2.17494 9930 ft 306 kts 71°
2026-05-06 07:18 39.49853 2.20113 9930 ft 306 kts 71°
2026-05-06 07:18 39.50529 2.22690 9928 ft 305 kts 71°
2026-05-06 07:18 39.51211 2.25293 9929 ft 305 kts 71°
2026-05-06 07:18 39.51892 2.27895 9932 ft 306 kts 71°
2026-05-06 07:19 39.52573 2.30500 9937 ft 306 kts 71°
2026-05-06 07:19 39.53260 2.33133 9932 ft 306 kts 71°
2026-05-06 07:19 39.53941 2.35745 9933 ft 307 kts 71°
2026-05-06 07:19 39.54648 2.38352 9929 ft 307 kts 67°
2026-05-06 07:20 39.55587 2.40805 9937 ft 306 kts 58°
2026-05-06 07:20 39.56757 2.43129 9939 ft 306 kts 54°
2026-05-06 07:20 39.57977 2.45404 9939 ft 305 kts 53°
2026-05-06 07:20 39.59182 2.47634 9937 ft 306 kts 53°
2026-05-06 07:21 39.60406 2.49912 9939 ft 306 kts 54°
2026-05-06 07:21 39.61615 2.52174 9942 ft 307 kts 54°
2026-05-06 07:21 39.62831 2.54459 9943 ft 306 kts 54°
2026-05-06 07:21 39.64024 2.56709 9942 ft 307 kts 54°
2026-05-06 07:22 39.65233 2.58991 9941 ft 307 kts 54°
2026-05-06 07:22 39.66455 2.61303 9941 ft 307 kts 54°
2026-05-06 07:22 39.67665 2.63593 9942 ft 307 kts 54°
2026-05-06 07:22 39.68864 2.65865 9946 ft 307 kts 54°
2026-05-06 07:23 39.70075 2.68161 9950 ft 307 kts 54°
2026-05-06 07:23 39.71279 2.70445 9952 ft 308 kts 54°
2026-05-06 07:23 39.72480 2.72725 9955 ft 308 kts 55°
2026-05-06 07:23 39.73690 2.75025 9956 ft 308 kts 54°
2026-05-06 07:24 39.74906 2.77336 9957 ft 308 kts 55°
2026-05-06 07:24 39.76122 2.79649 9961 ft 308 kts 54°
2026-05-06 07:24 39.77318 2.81926 9953 ft 309 kts 54°
2026-05-06 07:24 39.78536 2.84247 9947 ft 308 kts 54°
2026-05-06 07:25 39.79732 2.86529 9946 ft 308 kts 54°
2026-05-06 07:25 39.80944 2.88841 9943 ft 309 kts 54°
2026-05-06 07:25 39.82154 2.91154 9937 ft 309 kts 54°
2026-05-06 07:25 39.83365 2.93467 9704 ft 310 kts 54°
2026-05-06 07:26 39.84580 2.95791 9309 ft 310 kts 54°
2026-05-06 07:26 39.85775 2.98081 8945 ft 307 kts 55°
2026-05-06 07:26 39.86974 3.00379 8590 ft 305 kts 54°
2026-05-06 07:26 39.88167 3.02669 8230 ft 302 kts 56°
2026-05-06 07:27 39.89003 3.05127 7832 ft 301 kts 82°
2026-05-06 07:27 39.88779 3.07802 7468 ft 293 kts 115°
2026-05-06 07:27 39.87560 3.09816 7107 ft 284 kts 148°
2026-05-06 07:27 39.85769 3.10717 6770 ft 274 kts 176°
2026-05-06 07:28 39.83902 3.10526 6445 ft 266 kts 194°
2026-05-06 07:28 39.82104 3.10111 6114 ft 265 kts 189°
2026-05-06 07:28 39.78408 3.09642 5427 ft 264 kts 186°
2026-05-06 07:29 39.76601 3.09433 5090 ft 263 kts 186°
2026-05-06 07:29 39.74788 3.09218 4749 ft 262 kts 186°
2026-05-06 07:29 39.72962 3.08998 4480 ft 258 kts 186°
2026-05-06 07:29 39.71249 3.08579 4438 ft 242 kts 207°
2026-05-06 07:30 39.70026 3.07237 4262 ft 233 kts 237°
2026-05-06 07:30 39.69202 3.05421 3958 ft 232 kts 241°
2026-05-06 07:30 39.68407 3.03621 3667 ft 232 kts 240°
2026-05-06 07:30 39.67584 3.01805 3380 ft 231 kts 240°
2026-05-06 07:31 39.66763 3.00026 3106 ft 229 kts 239°
2026-05-06 07:31 39.65950 2.98286 2978 ft 222 kts 239°
2026-05-06 07:31 39.65151 2.96585 2980 ft 223 kts 240°
2026-05-06 07:31 39.64343 2.94839 2973 ft 223 kts 240°
2026-05-06 07:32 39.63563 2.93122 2905 ft 220 kts 240°
2026-05-06 07:32 39.62783 2.91441 2664 ft 218 kts 239°
2026-05-06 07:32 39.61988 2.89758 2376 ft 218 kts 239°
2026-05-06 07:32 39.61194 2.88091 2093 ft 217 kts 239°
2026-05-06 07:33 39.60406 2.86435 1806 ft 217 kts 239°
2026-05-06 07:33 39.59626 2.84793 1515 ft 210 kts 239°
2026-05-06 07:33 39.58871 2.83201 1241 ft 203 kts 239°
2026-05-06 07:33 39.58152 2.81684 1050 ft 191 kts 239°
2026-05-06 07:34 39.57480 2.80264 773 ft 180 kts 239°
2026-05-06 07:34 39.56838 2.78910 532 ft 168 kts 239°
2026-05-06 07:34 39.56256 2.77681 306 ft 155 kts 240°
2026-05-06 07:34 39.55714 2.76528 96 ft 141 kts 239°
2026-05-06 07:35 39.55222 2.75494 14 ft 125 kts 239°
2026-05-06 07:35 39.54855 2.74717 22 ft 75 kts 238°
2026-05-06 07:35 39.54632 2.74247 30 ft 50 kts 239°
2026-05-06 07:35 39.54551 2.73910 34 ft 36 kts 266°
2026-05-06 07:36 39.54560 2.73690 35 ft 14 kts 298°
2026-05-06 07:36 39.54634 2.73620 35 ft 10 kts 351°
2026-05-06 07:36 39.54674 2.73607 35 ft 5 kts 354°
2026-05-06 07:36 39.54705 2.73646 35 ft 6 kts 59°
2026-05-06 07:37 39.54716 2.73672 35 ft 0 kts 59°